Weather in Irapuato

Mexico     20°41′04″N   101°21′20″W
temp.,
°C
wind,
m/s
gust,
m/s
humid.,
%
clouds,
%
prec.,
mm/h
press.,
hPa
HPBL,
m
25 february, thu
thu2500:00+14e46310 0.0 101980
03:00+10e124414 0.0 101922
06:00+8ese12517 0.0 102022
09:00+15nw113434 0.0 1020242
12:00+26ssw131466 0.0 10171437
15:00+30ne12861 0.0 10112863
18:00+28nw22936 0.0 101184
21:00+17ne68343 0.0 1016123
26 february, fri
fri2600:00+13ese224949 0.0 101823
03:00+10ese116480 0.0 101622
06:00+9se117287 0.0 101722
09:00+15ssw214427 0.0 1017248
12:00+25w432314 0.0 10131079
15:00+30wsw21110 0.0 10082523
18:00+29w22112 0.0 1007209
21:00+18nnw12240 0.0 101223
27 february, sat
sat2700:00+14e22310 0.0 101423
03:00+11se11410 0.0 101423
06:00+10se125444 0.0 101422
09:00+16ssw114224 0.0 1015244
12:00+26w432025 0.0 10121100
15:00+30wsw331392 0.0 10072862
18:00+29nnw231363 0.0 1006363
21:00+18sse12277 0.0 101223
28 february, sun
sun2800:00+14ne12383 0.0 101523
03:00+11ssw01490 0.0 101523
06:00+9ese11611 0.0 101522
09:00+16ssw214116 0.0 1016229
12:00+26w431919 0.0 10121151
15:00+30wnw331355 0.0 10083128
18:00+28nnw551678 0.0 1008906
21:00+18nnw232973 0.0 101323
1 march, mon
mon100:00+14e223762 0.0 101523
03:00+11se014759 0.0 101423
06:00+9se115564 0.0 101523
09:00+17ssw113622 0.0 1016234
12:00+27wsw221811 0.0 10121247
15:00+31sw42122 0.0 10082931
18:00+30w22111 0.0 10071343
21:00+20ne69450 0.0 1013154